[[{"header":{"parameterUnit":"m.s-1","parameterCategory":1,"la1":30.2991,"la2":30.254,"lo1":-89.0895,"lo2":-89.0444,"dy":0.0017,"dx":0.0017,"nx":28,"ny":28,"refTime":"2025-03-13T21:00:00:Z","depth":0,"parameterNumber":2,"parameterNumberName":"U-component_of_WINDS"},"data":[0,0,0,0,0,0,0,0,0,0,0,0,0,0,0,0,0,0,0,0,0,0,0,0,0,0,0,0,0,0,0,0,0,0,0,0,0,0,0,0,0,0,0,0,0,0,0,0,0,0,0,0,0,0,0,0,0,0,-4.5503,-4.5505,0,-4.5702,-4.5705,-4.5707,-4.5765,-4.5764,-4.5763,-4.5762,-4.5966,-4.5972,-4.5978,0,0,0,0,0,0,0,0,0,0,0,0,0,-4.5171,-4.5177,-4.5502,-4.5505,-4.5507,-4.5702,-4.5705,-4.5707,-4.5765,-4.5764,-4.5763,-4.5762,-4.5964,-4.5971,-4.5979,0,0,0,0,0,0,0,0,0,0,0,0,0,-4.5337,-4.5179,-4.5502,-4.556,-4.5567,-4.5701,-4.5705,-4.5708,-4.5766,-4.5764,-4.5762,-4.5761,-4.5961,-4.597,-4.598,-4.6071,0,0,-4.6009,-4.6013,0,0,0,0,0,0,0,0,-4.5328,-4.5349,-4.5549,-4.5556,-4.5564,-4.5707,-4.5663,-4.583,-4.5766,-4.569,-4.5762,-4.576,-4.5881,-4.5897,-4.5938,-4.608,-4.6089,-4.601,-4.6016,-4.602,-4.6023,0,0,0,0,0,0,0,-4.5316,-4.5341,-4.5581,-4.5552,-4.5561,-4.5576,-4.5598,-4.5695,-4.5792,-4.5697,-4.5701,-4.5724,-4.5885,-4.5929,-4.5943,-4.6092,-4.601,-4.6018,-4.6024,-4.6028,-4.632,-4.6322,0,0,0,0,0,0,-4.5295,-4.5331,-4.5575,-4.5587,-4.544,-4.5583,-4.5608,-4.5663,-4.5791,-4.5809,-4.5725,-4.5726,-4.5913,-4.5932,-4.5951,-4.6066,-4.602,-4.6029,-4.6035,-4.6318,-4.6321,-4.6323,0,0,0,0,0,0,-4.5288,-4.5316,-4.5567,-4.5461,-4.5494,-4.559,-4.5652,-4.5668,-4.5711,-4.5813,-4.583,-4.5752,-4.5912,-4.5937,-4.6041,-4.6073,-4.6033,-4.6042,-4.6316,-4.6319,-4.6322,-4.6296,0,0,0,0,0,0,-4.5278,-4.5313,-4.5348,-4.5461,-4.5499,-4.5654,-4.5654,-4.5673,-4.5728,-4.5731,-4.5843,-4.586,-4.5913,-4.6026,-4.605,-4.6086,-4.605,-4.6314,-4.6318,-4.6321,-4.6294,-4.6298,-4.6301,0,0,0,0,0,-4.5266,-4.5333,-4.535,-4.5379,-4.5546,-4.5655,-4.5677,-4.5738,-4.573,-4.5767,-4.5832,-4.5856,-4.6066,-4.6036,-4.6064,-4.6103,-4.6312,-4.6316,-4.6321,-4.6293,-4.6297,-4.6301,0,0,0,0,0,0,-4.5221,-4.5349,-4.5369,-4.5474,-4.5554,-4.5665,-4.5713,-4.574,-4.5823,-4.5822,-4.5894,-4.5918,-4.6017,-4.6071,-4.6035,-4.6198,-4.619,-4.62,-4.6159,-4.6164,-4.6167,-4.6151,-4.6058,0,0,0,0,0,-4.5223,-4.5302,-4.541,-4.5492,-4.5531,-4.5615,-4.5665,-4.5705,-4.579,-4.5824,-4.5897,-4.5978,-4.6063,-4.6117,-4.62,-4.6303,-4.6328,-4.6344,-4.6347,-4.6349,-4.6357,-4.6415,-4.6424,-4.6338,-4.6338,-4.6338,0,0,-4.5229,-4.5309,-4.5354,-4.5485,-4.5551,-4.5631,-4.5643,-4.5727,-4.5787,-4.5836,-4.5939,-4.5995,-4.6091,-4.6195,-4.6244,-4.6243,-4.6386,-4.6355,-4.6356,-4.6362,-4.6421,-4.6429,-4.6436,-4.6341,-4.634,-4.634,0,0,-4.528,-4.5348,-4.5424,-4.5491,-4.5591,-4.5647,-4.5665,-4.5773,-4.5813,-4.5917,-4.5956,-4.6029,-4.6173,-4.624,-4.6292,-4.637,-4.6395,-4.6396,-4.6411,-4.6468,-4.6475,-4.6481,-4.6508,-4.6517,-4.6403,-4.6403,-4.6403,0,-4.5273,-4.5395,-4.546,-4.5543,-4.5599,-4.5649,-4.5727,-4.5789,-4.5911,-4.5949,-4.5946,-4.6128,-4.6196,-4.6316,-4.6336,-4.6377,-4.64,-4.6382,-4.6468,-4.6475,-4.6482,-4.6509,-4.6519,-4.6402,-4.6403,-4.6403,-4.6403,0,-4.5383,-4.5467,-4.5517,-4.5634,-4.5697,-4.5776,-4.5853,-4.5909,-4.5944,-4.6,-4.6106,-4.619,-4.6291,-4.6323,-4.6358,-4.6449,-4.6445,-4.6454,-4.6447,-4.6489,-4.6515,-4.6526,-4.6401,-4.6402,-4.6402,-4.6402,0,0,-4.5409,-4.5562,-4.5579,-4.5633,-4.5748,-4.5815,-4.5897,-4.5997,-4.6043,-4.6127,-4.6197,-4.6319,-4.6329,-4.6389,-4.6432,-4.6482,-4.6538,-4.6485,-4.6489,-4.6491,-4.6643,-4.6634,-4.6645,-4.6556,-4.6558,-4.656,-4.6634,0,-4.5473,-4.5622,-4.5683,-4.5804,-4.5882,-4.5932,-4.6004,-4.6082,-4.6138,-4.6213,-4.6274,-4.6359,-4.6365,-4.6402,-4.6454,-4.652,-4.6569,-4.6516,-4.6622,-4.6625,-4.6594,-4.6659,-4.6649,-4.6715,-4.6645,-4.6647,-4.6648,0,-4.5568,-4.5652,-4.578,-4.5887,-4.5922,-4.5985,-4.6082,-4.6153,-4.6244,-4.6281,-4.6348,-4.6389,-4.6478,-4.6466,-4.6589,-4.6551,-4.6599,-4.6638,-4.6643,-4.6653,-4.6638,-4.667,-4.6738,-4.6747,-4.6665,-4.6664,-4.6663,0,-4.5573,-4.5718,-4.5814,-4.5859,-4.5986,-4.6029,-4.6084,-4.6173,-4.6229,-4.6314,-4.6352,-4.6446,-4.6497,-4.6569,-4.6634,-4.662,-4.6751,-4.6745,-4.6784,-4.6782,-4.6808,-4.6805,-4.6883,-4.684,-4.684,-4.684,-4.684,0,-4.5637,-4.5713,-4.5818,-4.5876,-4.5964,-4.6034,-4.6119,-4.6177,-4.6256,-4.6327,-4.6376,-4.6442,-4.6525,-4.6602,-4.6654,-4.6747,-4.677,-4.6802,-4.6815,-4.6797,-4.6793,-4.6828,-4.6825,-4.6843,-4.6842,-4.6842,-4.6841,0,-4.5657,-4.573,-4.5837,-4.5949,-4.5979,-4.6038,-4.6134,-4.6193,-4.6251,-4.634,-4.6365,-4.6457,-4.6549,-4.6622,-4.6743,-4.6778,-4.6877,-4.6891,-4.6846,-4.6852,-4.6887,-4.6882,-4.6989,-4.7006,-4.6953,-4.6953,-4.6953,0,-4.5692,-4.5752,-4.5871,-4.5922,-4.5976,-4.6058,-4.6116,-4.6189,-4.6247,-4.6355,-4.6401,-4.6498,-4.6578,-4.6724,-4.6801,-4.6894,-4.6911,-4.6942,-4.6925,-4.6905,-4.691,-4.6905,-4.6911,-4.6943,-4.6943,-4.6943,-4.6943,0,-4.5748,-4.5781,-4.5863,-4.5958,-4.6026,-4.6104,-4.6183,-4.6222,-4.6309,-4.6372,-4.6468,-4.653,-4.6654,-4.6749,-4.685,-4.6907,-4.694,-4.6949,-4.6962,-4.6944,-4.6915,-4.693,-4.685,-4.6945,-4.6945,-4.6945,-4.6945,-4.6945,-4.5776,-4.5832,-4.5924,-4.6013,-4.6081,-4.6154,-4.6215,-4.6281,-4.6362,-4.6468,-4.6507,-4.6605,-4.6695,-4.6834,-4.6892,-4.697,-4.6972,-4.6992,-4.6997,-4.7001,-4.6998,-4.6904,-4.6989,-4.6989,-4.6989,-4.6989,-4.6989,0,-4.5833,-4.5896,-4.5977,-4.6087,-4.6157,-4.6183,-4.6272,-4.633,-4.6415,-4.6497,-4.6576,-4.6686,-4.6778,-4.6863,-4.696,-4.7006,-4.7024,-4.7029,-4.7026,-4.7038,-4.6991,-4.6969,-4.7013,-4.7013,-4.7013,-4.7013,-4.7013,-4.7013,-4.5871,-4.5967,-4.6011,-4.6141,-4.6203,-4.63,-4.6348,-4.6416,-4.6482,-4.6602,-4.668,-4.6735,-4.6818,-4.6922,-4.7008,-4.7031,-4.7064,-4.7065,-4.7091,-4.7045,-4.7042,-4.7038,-4.7018,-4.7072,-4.7072,-4.7132,-4.7133,-4.7133]},{"header":{"parameterUnit":"m.s-1","parameterCategory":1,"la1":30.2991,"la2":30.254,"lo1":-89.0895,"lo2":-89.0444,"dy":0.0017,"dx":0.0017,"nx":28,"ny":28,"refTime":"2025-03-13T21:00:00:Z","depth":0,"parameterNumber":3,"parameterNumberName":"V-component_of_WINDS"},"data":[0,0,0,0,0,0,0,0,0,0,0,0,0,0,0,0,0,0,0,0,0,0,0,0,0,0,0,0,0,0,0,0,0,0,0,0,0,0,0,0,0,0,0,0,0,0,0,0,0,0,0,0,0,0,0,0,0,0,6.4187,6.4188,0,6.4314,6.4316,6.4317,6.4305,6.4303,6.4301,6.4299,6.4426,6.4432,6.4437,0,0,0,0,0,0,0,0,0,0,0,0,0,6.3932,6.3937,6.4187,6.4188,6.419,6.4314,6.4316,6.4317,6.4305,6.4303,6.43,6.4298,6.4425,6.4431,6.4437,0,0,0,0,0,0,0,0,0,0,0,0,0,6.4049,6.3939,6.4187,6.4199,6.4201,6.4314,6.4316,6.4318,6.4306,6.4303,6.43,6.4297,6.4423,6.443,6.4438,6.4545,0,0,6.4462,6.4465,0,0,0,0,0,0,0,0,6.4043,6.4059,6.4196,6.4198,6.4201,6.4291,6.4273,6.4394,6.4306,6.4266,6.4299,6.4296,6.4383,6.4394,6.4425,6.4551,6.4557,6.4463,6.4467,6.4471,6.4473,0,0,0,0,0,0,0,6.4035,6.4053,6.4237,6.4198,6.4201,6.4198,6.4211,6.4296,6.434,6.4269,6.4269,6.4284,6.4384,6.4417,6.4427,6.4558,6.4462,6.4469,6.4474,6.4477,6.4783,6.4786,0,0,0,0,0,0,6.4024,6.4047,6.4233,6.4241,6.4113,6.4205,6.422,6.4265,6.4339,6.4347,6.4287,6.4283,6.4405,6.4418,6.4432,6.4565,6.4471,6.4478,6.4483,6.4779,6.4783,6.4787,0,0,0,0,0,0,6.4019,6.4041,6.4228,6.4144,6.4167,6.4212,6.4263,6.4269,6.4302,6.4352,6.4359,6.4312,6.4403,6.4421,6.4518,6.4569,6.4482,6.4489,6.4775,6.4781,6.4785,6.483,0,0,0,0,0,0,6.4011,6.4039,6.408,6.4145,6.4172,6.4313,6.4266,6.4274,6.4316,6.4312,6.4378,6.4385,6.4402,6.4507,6.4526,6.4578,6.4495,6.4771,6.4778,6.4784,6.4824,6.4836,6.4846,0,0,0,0,0,6.4002,6.4086,6.4082,6.4105,6.4225,6.4315,6.4331,6.4349,6.432,6.4362,6.4394,6.4383,6.456,6.4517,6.4538,6.4594,6.4768,6.4776,6.4783,6.4819,6.4834,6.4846,0,0,0,0,0,0,6.4025,6.4095,6.4091,6.4199,6.4252,6.4313,6.4367,6.4364,6.4425,6.4419,6.4439,6.4453,6.4552,6.4582,6.4533,6.4703,6.466,6.4672,6.468,6.4694,6.4705,6.4696,6.4501,0,0,0,0,0,6.4042,6.4111,6.4168,6.4258,6.4284,6.4321,6.4361,6.4371,6.4426,6.4448,6.4487,6.4541,6.4609,6.4653,6.4717,6.4828,6.4844,6.4877,6.4888,6.4897,6.4908,6.4972,6.4988,6.4812,6.4812,6.4812,0,0,6.4079,6.4126,6.4168,6.4264,6.4305,6.4376,6.434,6.4415,6.4468,6.4459,6.4555,6.4586,6.4646,6.4752,6.48,6.478,6.496,6.4907,6.4913,6.492,6.4981,6.4998,6.5013,6.4818,6.4817,6.4816,0,0,6.4184,6.4225,6.4306,6.4349,6.4414,6.4438,6.4458,6.4521,6.4542,6.4638,6.4633,6.4696,6.4811,6.4856,6.4893,6.5017,6.501,6.5037,6.5095,6.5157,6.5171,6.5184,6.5231,6.5247,6.5048,6.5048,6.5048,0,6.4221,6.4328,6.4347,6.4425,6.4468,6.4464,6.4547,6.4588,6.467,6.47,6.4676,6.4823,6.4863,6.4981,6.5011,6.5041,6.5065,6.5031,6.5168,6.5181,6.5192,6.5237,6.5255,6.5051,6.5051,6.505,6.505,0,6.4373,6.4447,6.4505,6.4587,6.4636,6.4715,6.4746,6.4794,6.48,6.4827,6.4926,6.4974,6.505,6.5078,6.5084,6.5197,6.5183,6.5163,6.5121,6.5212,6.5255,6.5272,6.5055,6.5054,6.5053,6.5053,0,0,6.4495,6.4588,6.4609,6.4647,6.4719,6.4777,6.4857,6.4933,6.4975,6.5031,6.51,6.5199,6.5182,6.5225,6.5235,6.5289,6.5388,6.5263,6.5265,6.5287,6.552,6.5536,6.5555,6.5383,6.5387,6.5389,6.5515,0,6.4608,6.4751,6.4772,6.4898,6.4968,6.4967,6.5037,6.5089,6.5116,6.518,6.5209,6.5281,6.5251,6.5278,6.5331,6.5365,6.5435,6.5356,6.5449,6.5452,6.5436,6.5577,6.5594,6.5711,6.5532,6.5535,6.5537,0,6.476,6.4824,6.4958,6.5023,6.5054,6.5116,6.5189,6.5249,6.5308,6.5325,6.5374,6.5379,6.5462,6.5415,6.5531,6.5477,6.5516,6.5538,6.5543,6.5554,6.5501,6.5595,6.5748,6.5767,6.5563,6.556,6.5559,0,6.484,6.4958,6.5055,6.5087,6.5165,6.521,6.5244,6.53,6.5346,6.5408,6.5439,6.551,6.5549,6.5604,6.5629,6.5591,6.5744,6.5698,6.5762,6.5761,6.5796,6.5794,6.596,6.5816,6.5816,6.5816,6.5815,0,6.4966,6.5049,6.5092,6.5152,6.5245,6.5267,6.5359,6.5391,6.5442,6.5508,6.5509,6.5571,6.5598,6.5665,6.5684,6.5779,6.5796,6.5812,6.5817,6.5814,6.5812,6.5841,6.5835,6.582,6.5819,6.5818,6.5818,0,6.5071,6.5103,6.5209,6.5275,6.5293,6.5359,6.5415,6.5474,6.5501,6.5585,6.5606,6.5648,6.5727,6.5756,6.5851,6.5864,6.5975,6.5971,6.5956,6.5957,6.602,6.6015,6.6214,6.6242,6.6077,6.6078,6.6079,0,6.5151,6.5215,6.5289,6.5334,6.537,6.5442,6.549,6.5514,6.5563,6.5637,6.5686,6.5765,6.5829,6.5955,6.5994,6.6067,6.6067,6.6132,6.6078,6.6074,6.6072,6.6069,6.6077,6.6142,6.6144,6.6145,6.6146,0,6.529,6.5304,6.5372,6.5447,6.5504,6.5563,6.5621,6.5658,6.5691,6.5746,6.5827,6.5877,6.5975,6.6054,6.613,6.6165,6.6163,6.6163,6.6182,6.6181,6.6171,6.618,6.5986,6.6159,6.6157,6.6157,6.6156,6.6155,6.5388,6.5446,6.5508,6.5584,6.5631,6.5685,6.5745,6.578,6.5849,6.5932,6.5941,6.6029,6.6089,6.619,6.6229,6.6298,6.6281,6.6308,6.6315,6.6322,6.6328,6.6158,6.6312,6.6311,6.6311,6.6311,6.631,0,6.553,6.557,6.564,6.5723,6.5784,6.5776,6.584,6.5892,6.597,6.6026,6.609,6.6184,6.6261,6.6307,6.6385,6.6431,6.6433,6.6451,6.6449,6.6458,6.6338,6.6315,6.6449,6.6449,6.6449,6.6449,6.6449,6.6449,6.5611,6.5711,6.5732,6.5855,6.5894,6.5981,6.6019,6.607,6.6115,6.6221,6.6286,6.6316,6.6368,6.645,6.6521,6.6532,6.6562,6.6583,6.6593,6.648,6.6466,6.6453,6.6432,6.6588,6.6588,6.6708,6.6709,6.671]}]]